Regional Weather Roundup
Issued by NWS

Home | Current Version | Previous Version | Graphics & Text | Print | Product List | Glossary On
Versions: 1 2 3 4 5 6 7 8 9 10 11 12 13 14 15 16 17 18 19 20 21 22 23 24 25 26 27 28 29 30 31 32 33 34 35 36 37 38 39 40 41 42 43 44 45 46 47 48 49 50
000
ASUS43 KLSX 200307
RWRMO

WEATHER SUMMARY FOR MISSOURI
NATIONAL WEATHER SERVICE SPRINGFIELD MO
1000 PM CDT THU OCT 19 2017

NOTE: "FAIR" INDICATES FEW OR NO CLOUDS BELOW 12,000 FEET WITH NO
       SIGNIFICANT WEATHER AND/OR OBSTRUCTIONS TO VISIBILITY.
       CURRENT SKY AND/OR WEATHER CONDITIONS ARE NOT AVAILABLE FOR
       CHILLICOTHE AND FARMINGTON.

MOZ001>031-035>038-043-044-053-054-200400-
...NORTHERN AND WESTERN MISSOURI...

CITY           SKY/WX    TMP DP  RH WIND       PRES   REMARKS
KANSAS CTY INT PTCLDY    62  53  72 S12       30.07R
KANSAS C DTWN  CLEAR     64  54  69 S8        30.07R
LEE`S SUMMIT   CLEAR     64  54  69 S13       30.09R
ST JOSEPH      CLOUDY    63  54  72 S8        30.05R
CHILLICOTHE      N/A     63  53  70 S3        30.09S
KIRKSVILLE     CLEAR     59  53  80 S8        30.11R

$$
MOZ066>068-077>081-088>096-101>105-200400-
...SOUTHWEST MISSOURI...

CITY           SKY/WX    TMP DP  RH WIND       PRES   REMARKS
SPRINGFIELD    CLOUDY    65  48  54 S12       30.14R
JOPLIN         CLEAR     59  52  77 S6        30.13R
BRANSON        CLOUDY    63  50  63 CALM      30.18R

$$
MOZ032>034-039>042-045>050-055>058-069>072-200400-
...CENTRAL MISSOURI...

CITY           SKY/WX    TMP DP  RH WIND       PRES   REMARKS
COLUMBIA       CLOUDY    65  52  62 S6        30.13R
JEFFERSON CITY CLOUDY    57  53  86 E5        30.12R
ROLLA          CLOUDY    64  47  53 S10       30.16R
SEDALIA        PTCLDY    59  54  83 S8        30.12R
WHITEMAN AFB   CLEAR     61  52  73 S5        30.06S
WARRENSBURG    CLEAR     59  52  77 SE5       30.09S
OSAGE BEACH    CLEAR     62  52  69 S6        30.14S

$$
MOZ051-052-059>065-200400-
...EAST CENTRAL MISSOURI...

CITY           SKY/WX    TMP DP  RH WIND       PRES   REMARKS
ST LOUIS INTL  PTCLDY    68  51  54 S7        30.15S
SPIRIT OF STL  CLEAR     54  53  97 CALM      30.14R
ST CHARLES     CLEAR     56  48  74 E6        30.14R

$$
MOZ072>076-082>087-097>100-106>115-200400-
...SOUTH CENTRAL AND SOUTHEAST MISSOURI...

CITY           SKY/WX    TMP DP  RH WIND       PRES   REMARKS
CAPE GIRARDEAU CLEAR     58  48  69 CALM      30.19S
FARMINGTON     CLEAR     56  49  77 CALM      30.19S
POPLAR BLUFF   CLEAR     53  51  93 CALM      30.19R
WEST PLAINS    CLOUDY    63  48  58 S6        30.20R

$$



USA.gov is the U.S. government's official web portal to all federal, state and local government web resources and services.